Weather History for KMWH - May, 2013

Change the Weather History Date:

Wednesday, May 15, 2013

  Actual Average Record
Temperature  
Mean Temperature 54 °F 59 °F  
Max Temperature 69 °F 74 °F 93 °F (2006)
Min Temperature 39 °F 44 °F 33 °F (1986)
Degree Days  
Heating Degree Days 11 7  
Month to date heating degree days 51 132  
Since 1 July heating degree days 5159 5749  
Cooling Degree Days 0 1  
Month to date cooling degree days 50 5  
Year to date cooling degree days 50 6  
Growing Degree Days 5 (Base 50)    
Moisture  
Dew Point 34 °F    
Average Humidity 50    
Maximum Humidity 73    
Minimum Humidity 26    
Precipitation  
Precipitation 0.00 in 0.02 in 0.11 in (2005)
Month to date precipitation 0.01 0.29  
Year to date precipitation 1.39 3.71  
Sea Level Pressure  
Sea Level Pressure 30.00 in    
Wind  
Wind Speed 5 mph (South)    
Max Wind Speed 14 mph    
Max Gust Speed 17 mph    
Visibility 10 miles    
Events      
T = Trace of Precipitation, MM = Missing Value Source: NWS Daily Summary

Daily Weather History Graph

Daily Weather History Graph

Search for Another Location

Airport or City:

Trip Planner

Search our weather history database for the weather conditions in past years. The results will help you decide how hot, cold, wet, or windy it might be!

Date:

Astronomy

May. 15, 2013 Rise Set
Actual Time 5:20 AM PDT 8:27 PM PDT
Civil Twilight 4:44 AM PDT 9:03 PM PDT
Nautical Twilight 3:57 AM PDT 9:50 PM PDT
Astronomical Twilight 2:59 AM PDT 10:49 PM PDT
Moon 10:05 AM PDT (5/15) 12:13 AM PDT (5/15)
Length of Visible Light 16h 19m
Length of Day
15h 06m
Waxing Crescent, 28% of the Moon is Illuminated
May 15
Waxing Crescent
May 17
First Quarter
May 24
Full
May 31
Last Quarter
Jun 8
New

Hourly Weather History & Observations

Time (PDT) Temp. Windchill Dew Point Humidity Pressure Visibility Wind Dir Wind Speed Gust Speed Precip Events Conditions
12:52 AM 46.0 °F - 32.0 °F 58% 30.07 in 10.0 mi Calm Calm - N/A   Clear
1:52 AM 48.0 °F - 33.1 °F 56% 30.06 in 10.0 mi Calm Calm - N/A   Clear
2:52 AM 43.0 °F 41.3 °F 30.9 °F 62% 30.06 in 10.0 mi NNE 3.5 mph - N/A   Clear
3:52 AM 41.0 °F 39.0 °F 33.1 °F 73% 30.06 in 10.0 mi NE 3.5 mph - N/A   Clear
4:52 AM 41.0 °F 38.0 °F 32.0 °F 70% 30.06 in 10.0 mi NNE 4.6 mph - N/A   Clear
5:52 AM 41.0 °F 38.0 °F 30.0 °F 65% 30.06 in 10.0 mi North 4.6 mph - N/A   Clear
6:52 AM 43.0 °F 41.3 °F 30.9 °F 62% 30.06 in 10.0 mi North 3.5 mph - N/A   Clear
7:52 AM 50.0 °F - 30.9 °F 48% 30.06 in 10.0 mi Calm Calm - N/A   Clear
8:52 AM 57.0 °F - 34.0 °F 42% 30.06 in 10.0 mi North 5.8 mph - N/A   Clear
9:52 AM 61.0 °F - 32.0 °F 34% 30.05 in 10.0 mi NNE 4.6 mph - N/A   Clear
10:52 AM 64.0 °F - 33.1 °F 31% 30.04 in 10.0 mi Variable 4.6 mph - N/A   Clear
11:52 AM 64.9 °F - 30.9 °F 28% 30.01 in 10.0 mi Variable 3.5 mph - N/A   Clear
12:52 PM 66.0 °F - 30.9 °F 27% 30.00 in 10.0 mi SSE 3.5 mph - N/A   Clear
1:52 PM 69.1 °F - 34.0 °F 27% 29.98 in 10.0 mi South 9.2 mph - N/A   Clear
2:52 PM 66.9 °F - 34.0 °F 30% 29.99 in 10.0 mi SSW 8.1 mph - N/A   Overcast
3:52 PM 69.1 °F - 33.1 °F 26% 29.97 in 10.0 mi South 9.2 mph - N/A   Mostly Cloudy
4:52 PM 66.0 °F - 33.1 °F 29% 29.96 in 10.0 mi South 11.5 mph - N/A   Overcast
5:52 PM 64.9 °F - 37.0 °F 36% 29.96 in 10.0 mi SW 6.9 mph - N/A   Overcast
6:52 PM 64.0 °F - 39.0 °F 40% 29.94 in 10.0 mi WSW 8.1 mph - N/A   Overcast
7:52 PM 63.0 °F - 37.9 °F 40% 29.93 in 10.0 mi WSW 5.8 mph - N/A   Overcast
8:52 PM 63.0 °F - 37.9 °F 40% 29.93 in 10.0 mi South 3.5 mph - N/A   Overcast
9:52 PM 61.0 °F - 39.0 °F 44% 29.93 in 10.0 mi South 3.5 mph - N/A   Overcast
10:52 PM 62.1 °F - 39.0 °F 43% 29.92 in 10.0 mi Calm Calm - N/A   Overcast
11:52 PM 62.1 °F - 41.0 °F 46% 29.92 in 10.0 mi Calm Calm - N/A   Overcast